726  
ASUS46 KPDT 210504  
RWRPDT  
PENDLETON REGIONAL WEATHER ROUNDUP  
NATIONAL WEATHER SERVICE PENDLETON OREGON  
900 PM PST MON FEB 20 2017  
 
NOTE: FAIR INDICATES FEW OR NO CLOUDS BELOW 12,000 FEET WITH NO  
SIGNIFICANT WEATHER AND/OR S TO VISIBILITY
.  
 
# INDICATES UNOFFICIAL STATION AND DATA  
 
WAZ520-210610-  
EAST SLOPES OF WASHINGTON CASCADES  
 
CITY SKY/WX TMP DP RH WIND PRES REMARKS
 
#CLE ELUM HS N/A 34 32 92 CALM 29.67R  
#CLE ELUM LAKE N/A 33 32 96 CALM 29.72R  
#GLENWOOD N/A 35 34 96 CALM 29.72R  
#MANASTASH CYN N/A 32 28 85 CALM 29.67S  
#NELSON 3SW N/A 32 31 96 CALM 29.95R  
#NILE N/A 32 31 96 CALM 29.00R  
#TEANAWAY 4NE N/A 33 33 100 CALM N/A  
#TROUT LAKE 1NE N/A 35 34 96 CALM 29.72S  
#TROUT LAKE 1E N/A 33 32 96 CALM 29.70S  

 
 
WAZ521-210610-  
SIMCOE HIGHLANDS  
 
CITY SKY/WX TMP DP RH WIND PRES REMARKS
 
#CENTERVILLE 1SWN/A 34 30 85 CALM 29.70R  
#GOLDENDALE 1NE N/A 37 28 70 CALM N/A  
#GOLDENDALE 4W N/A N/A N/A N/A SW2 29.72R  
#GOODNOE HILLS N/A 42 34 73 SE2 29.61R  
#LYLE 6NE N/A 40 37 89 CALM 29.68S  
#PITT 4SE N/A 37 35 92 CALM 29.75S  

 
 
WAZ026-210610-  
KITTITAS VALLEY  
 
CITY SKY/WX TMP DP RH WIND PRES REMARKS
 
ELLENSBURG AP MOCLDY 32 28 85 N7 29.68S  
#ELLENSBURG CWU N/A 32 30 92 CALM 29.67F  
#ELLENSBURG 3NE N/A 31 29 92 CALM 27.78S  
#ELLENSBURG 1E N/A 30 N/A N/A CALM N/A  
#KITTITAS 4N N/A 32 28 85 E3 29.72S  
#KITTITAS 3S N/A 28 26 92 CALM 29.73S  
#THORP 6N N/A 34 32 92 CALM 29.75S  

 
 
WAZ027-210610-  
YAKIMA VALLEY  
 
CITY SKY/WX TMP DP RH WIND PRES REMARKS
 
SUNNYSIDE AP CLOUDY 35 32 89 SE3 29.71R  
YAKIMA AIRPORT CLOUDY 35 32 89 W5 29.71S  
YAKIMA-VAGABOND MOCLDY 33 31 92 CALM 29.68S  
#DONALD 2NE N/A 40 25 55 NW6 28.56R  
#GRANDVIEW N/A 38 31 76 CALM 29.74R  
#MABTON N/A 40 36 85 SE1 29.70R  
#MOXEE 2E N/A 35 0 22 CALM 29.70S  
#NACHES 2SW N/A 34 33 96 CALM 29.67S  
#TERRACE HTS N/A 34 32 92 CALM 29.70S  
#TOPPENISH N/A 39 35 85 CALM 29.65R  
#WEST VALLEY N/A 34 32 92 SW2 29.72S  
#W YAKIMA N/A 36 34 92 NW2 29.75R  
#WHITE SWAN 5E N/A 39 34 82 CALM 29.72S  
#WILEY CITY 3W N/A 33 28 82 CALM 29.66S  

 
 
WAZ028-210610-  
LOWER COLUMBIA BASIN...WASHINGTON  
 
CITY SKY/WX TMP DP RH WIND PRES REMARKS
 
PASCO MOCLDY 43 35 73 CALM 29.72S  
PROSSER AWOS N/A 41 39 93 VRB3 29.75R  
RICHLAND AWOS CLOUDY 41 36 82 W9 29.72S  
#BENTON CITY N/A 41 34 76 CALM 29.65R  
#CONNELL 5N N/A 32 30 92 CALM 29.73S  
#CONNELL 5NW N/A 35 34 96 E1 29.70S  
#ELTOPIA 6NW N/A 38 35 89 CALM 28.68F  
#KAHLOTUS N/A 42 35 76 CALM 29.73S  
#KENNEWICK 3S N/A 45 37 73 S1 29.72S  
#PATERSON N/A 43 38 82 E2 29.71R  
#SAGEMOOR 2W N/A 39 33 79 N1 29.57S  
#TOUCHET 2S N/A 46 38 73 S1 29.71S  
#WEST PASCO N/A 44 37 76 CALM 29.68S  

 
 
WAZ029-210610-  
FOOTHILLS OF THE BLUES...WASHINGTON  
 
CITY SKY/WX TMP DP RH WIND PRES REMARKS
 
WALLA WALLA AP PTCLDY 46 38 73 SE6 29.71F  
#CLYDE 6NW N/A 43 36 76 CALM 29.71S  
#DAYTON SCHOOL N/A 42 29 60 CALM 29.75S  
#LOWDEN 2SE N/A 45 39 79 SE1 29.68F  
#PLEASANT VIEW 1N/A 40 36 85 S5 29.77R  
#PRESCOTT N/A 43 38 82 CALM 29.71F  
#WHITMAN COLLEGEN/A 46 39 76 CALM 29.76F  
#WAITSBURG 5S N/A 43 37 79 SE6 29.80F  
#WAITSBURG 8N N/A 42 N/A N/A S6 29.59S  
#WALLA WALLA 5E N/A 45 40 82 SE1 N/A  
#WALLA WALLA U N/A 47 40 76 CALM 29.72F  
#WHITMAN MISSIONN/A 46 40 79 CALM 29.73F  

 
 
WAZ030-210610-  
BLUE MOUNTAINS...WASHINGTON  
 
CITY SKY/WX TMP DP RH WIND PRES REMARKS
 
#DIXIE 5SE N/A 42 36 79 S7 29.61F  
#SKI BLUEWOOD N/A 32 30 92 CALM 29.67S  

 
 
ORZ009-041-WAZ024-210610-  
COLUMBIA RIVER GORGE  
 
CITY SKY/WX TMP DP RH WIND PRES REMARKS
 
HOOD RIVER AP CLOUDY 37 36 96 SE3 29.70S  
THE DALLES AP MOCLDY 41 37 86 E7 29.71R  
#ARLINGTON AIRPON/A 41 36 82 CALM 29.74R  
#ARLINGTON HS N/A 42 35 76 CALM 29.64S  
#CELILO DOT N/A 45 34 65 CALM N/A  
#LYLE N/A 42 38 86 N5 29.73R  
#MOSIER 1S N/A 38 32 79 CALM 29.67S  
#MURDOCK N/A 43 40 89 NW6 29.71R  
#RUFUS DOT N/A 46 37 71 S13 N/A WCI 40  
#SMITHVILLE N/A 42 38 86 N1 29.66R  
 

 
 
ORZ510-210610-  
NORTH CENTRAL OREGON  
 
CITY SKY/WX TMP DP RH WIND PRES REMARKS
 
#CHENOWITH 1W N/A 38 36 92 NW13 N/A WCI 30  
#COW CYN RST AREN/A 40 34 79 NE6 N/A  
#DUFUR 9E N/A 39 37 92 S3 29.76R  
#GRASS VALLEY 1SN/A 38 34 85 CALM 29.84R  
#KENT DOT N/A 40 29 64 N6 N/A  
#MAUPIN SCHOOL N/A 47 37 68 CALM 29.73R  
#MORO SCHOOL N/A 39 38 96 CALM 29.76R  
#SHANIKO 5WSW N/A 38 27 64 N6 N/A  
#SHANIKO 4NW N/A 37 32 82 NW7 29.64S  
#TYGH VALLEY 2NEN/A 43 37 79 CALM 29.70R  
#WAPANITIA AIRPON/A 42 37 82 NW2 29.71S  
#WASCO AIRPORT N/A 39 34 82 W2 N/A  
#WASCO 5NE N/A 35 32 89 CALM 29.73R  

 
 
ORZ511-210610-  
CENTRAL OREGON  
 
CITY SKY/WX TMP DP RH WIND PRES REMARKS
 
BEND AIRPORT LGT RAIN 41 36 82 CALM 29.63F  
MADRAS AIRPORT LGT RAIN 41 37 86 CALM 29.68S  
PRINEVILLE AP LGT RAIN 41 37 86 N6 29.64F  
REDMOND AIRPORT LGT RAIN 42 35 76 N3 29.63F  
#ASHWOOD SCHOOL N/A 43 37 79 CALM 29.65S  
#BEND 1SW N/A 37 34 89 CALM N/A  
#BEND-AWBREY N/A 39 37 92 SE2 29.65F  
#BEND-KIM LN N/A 39 35 85 CALM 29.60F  
#CULVER N/A 41 35 79 CALM 29.60S  
#CULVER 8W N/A 40 37 89 CALM 29.70S  
#LAKE BILLY CHINN/A 41 N/A N/A N2 29.78S  
#POWELL BUTTE N/A 41 36 82 E1 29.63F  
#PRINEVILLE 3N N/A 42 37 82 CALM 29.63F  
#WARM SPRINGS N/A 44 38 79 CALM 29.65R  
 

 
 
 
ORZ509-210610-  
EAST SLOPES OF OREGON CASCADES  
 
CITY SKY/WX TMP DP RH WIND PRES REMARKS
 
SISTERS AWOS N/A 37 34 89 W5 29.64S  
#BLUE BOX PASS N/A 33 N/A N/A NE6 N/A  
#CAMP SHERMAN N/A 33 30 89 CALM 29.78S  
#LA PINE 4NW N/A 34 30 85 CALM 29.67F  
#LAVA BUTTE DOT N/A 34 31 89 SE1 N/A  
#SISTERS ODOT N/A 38 N/A N/A CALM N/A  
#SISTERS 1NW N/A 37 32 82 CALM N/A  
#SISTERS 3N N/A 34 28 78 CALM 29.64S  
#SUNRIVER N/A 35 32 89 CALM 29.67F  
#TUMALO 3W N/A 39 33 79 S1 29.54S  
#WANOGA BUTTE D N/A 30 30 100 W5 N/A  
 

 
 
ORZ044-210610-  
LOWER COLUMBIA BASIN...OREGON  
 
CITY SKY/WX TMP DP RH WIND PRES REMARKS
 
HERMISTON LGT RAIN 43 38 82 SE7 29.71R  
#BOARDMAN SCHOOLN/A 43 38 82 CALM 29.72R  
#BOARDMAN 8SW N/A 42 39 89 SE6 29.72S  
#ECHO 8SW N/A 41 40 96 CALM 29.73R  
#I-84 EX 198 DOTN/A 43 37 79 N9 N/A  
#IONE SCHOOL N/A 41 25 53 CALM 29.74S  
#UMATILLA N/A 43 36 76 CALM 29.66S  

 
 
ORZ507-210610-  
NORTHERN FOOTHILLS OF THE BLUES  
 
CITY SKY/WX TMP DP RH WIND PRES REMARKS
 
PENDLETON AIRPT MOCLDY 40 37 89 S6 29.71R  
#ADAMS 3WNW N/A 40 36 85 CALM 29.72S  
#ATHENA N/A 40 35 82 CALM 29.75S  
#CAYUSE N/A 44 38 79 E14 29.71R WCI 37  
#HELIX SCHOOL N/A 39 36 89 CALM 29.72S  
#HELIX 3N N/A 41 37 86 SE3 29.69S  
#HOLDMAN 5SE N/A 30 29 96 CALM 29.80S  
#HOLDMAN 6E N/A 39 36 89 CALM 29.53S  
#M-F FERNDALE N/A 46 37 71 CALM 29.69F  
#M-F GROVE ELEM N/A 0 -78 1 CALM 29.70S  
#M-FREEWATER 5SEN/A 46 38 73 E7 29.71F  
#PENDLETON DNTN N/A 42 30 62 CALM 29.72S  
#PDT AQUATIC CTRN/A 41 34 76 CALM 29.75R  
#PDT SUNRIDGE N/A 39 36 89 CALM 29.73S  
#PENDLETON 7NW N/A 41 36 82 CALM 32.03S  
#PILOT ROCK 1S N/A 39 30 70 CALM 29.73S  
#PILOT ROCK N/A 40 34 79 SW2 29.74R  
#TUTUILLA N/A 39 35 85 SW1 29.72S  
#UMAPINE 2E N/A 45 39 79 S1 29.69S  
#WESTON SCHOOL N/A 43 34 70 CALM 29.65S  
 

 
 
ORZ508-210610-  
SOUTHERN FOOTHILLS OF THE BLUES  
 
CITY SKY/WX TMP DP RH WIND PRES REMARKS
 
LEXINGTON CLOUDY 41 37 86 S3 29.73S  
#AJAX N/A 40 29 64 N2 29.86R  
#CONDON SCHOOL N/A 40 35 82 N3 29.65S  
#CONDON 5W N/A 39 30 70 CALM 29.65R  
#HEPPNER EOC N/A 41 35 79 CALM 29.64R  
#HEPPNER 4NE N/A 39 34 82 E1 29.70S  
#LEXINGTON 2SE N/A 43 37 79 CALM 29.68R  
#MIKKALO N/A 40 34 79 E2 29.82R  
#OLEX 4N N/A 38 35 89 CALM 29.70S  
#RUGGS 5NE N/A 40 34 79 NE6 29.85S  
#RUGGS 2SW N/A 40 33 76 CALM 29.72R  
 

 
 
ORZ502-503-210610-  
BLUE MOUNTAINS  
 
CITY SKY/WX TMP DP RH WIND PRES REMARKS
 
MEACHAM MOCLDY 32 29 89 CALM 29.69F  
#BATTLE MTN DOT N/A 35 32 89 CALM N/A  
#HEPPNER 15SE N/A 34 30 85 CALM 29.98R  
#LADD CYN SMT N/A 37 32 82 S1 N/A  
#LADD CREEK ODOTN/A 36 22 56 SW3 N/A  
#LONG CREEK HS N/A 46 37 71 CALM N/A  
#N POWDER DOT N/A 45 30 55 SE3 N/A  
#PIKES PEAK N/A 41 30 65 CALM 27.99S  
#TOLLGATE N/A 32 30 92 CALM 29.59F  
#UKIAH N/A 35 33 92 CALM 29.62R  
#WESTON 4E N/A 38 33 82 E6 29.71S  

 
 
ORZ505-210610-  
JOHN DAY BASIN  
 
CITY SKY/WX TMP DP RH WIND PRES REMARKS
 
JOHN DAY LGT RAIN 44 37 76 S15 29.68S WCI 37  
#ANTELOPE 9ESE N/A 46 37 71 NE1 N/A  
#MITCHELL 8NW N/A 42 33 70 CALM 29.47F  
#MONUMENT HS N/A 46 35 65 CALM 29.63R  
#MT. VERNON 5SE N/A 41 35 79 SE1 29.62F  
#SPRAY SCHOOL N/A 46 N/A N/A CALM N/A  
#WINLOCK N/A 43 32 65 CALM 29.64F  

 
 
ORZ506-210610-  
OCHOCO AND JOHN DAY HIGHLANDS  
 
CITY SKY/WX TMP DP RH WIND PRES REMARKS
 
#HORSE RIDGE DO N/A 40 33 76 SE7 N/A  
#PAULINA SCHOOL N/A 43 35 73 S8 N/A  
#PINE MTN OBS N/A 31 30 96 SE12 N/A WCI 22  
#SENECA N/A 37 N/A N/A W5 N/A  
#SENECA 9NW N/A 36 32 85 CALM 29.70F  

 
 
ORZ049-210610-  
GRANDE RONDE VALLEY  
 
CITY SKY/WX TMP DP RH WIND PRES REMARKS
 
LA GRANDE MOCLDY 43 34 70 NW6 29.70S  
#COVE N/A 43 37 79 CALM 29.75S  
#COVE 6NW N/A 42 36 79 NW6 29.70F  
#ELGIN 3N N/A 38 29 70 CALM 29.71S  
#ELGIN 1E N/A 40 32 73 CALM N/A  
#IMBLER SCHOOL N/A 39 33 79 CALM 29.69F  
#ISLAND CITY 4N N/A 44 43 96 CALM 29.70S  
#UNION 1S N/A 43 36 76 N2 29.71R  

 
 
ORZ050-210610-  
WALLOWA COUNTY  
 
CITY SKY/WX TMP DP RH WIND PRES REMARKS
 
#IMNAHA SCHOOL N/A 47 37 68 CALM 29.72S  
#IMNAHA 10S N/A 46 35 65 NE1 29.72S  
#JOSEPH 3N N/A 34 27 75 CALM 29.77F  
#JOSEPH 3W N/A 34 30 85 CALM 29.59F  
#LOSTINE N/A 34 32 92 CALM 29.57F  
#LOSTINE 3SE N/A 36 33 89 CALM 29.75F  
#MT HOWARD 8000 N/A 27 22 81 SW8 29.65F  
#PROMISE 1S N/A 35 32 89 CALM 29.86F  
#WALLOWA SCHOOL N/A 38 34 85 CALM 29.71F  
 

 
 
CLICK HERE TO GO TO PREVIOUS BULLETINS.

The Nexlab OR Page
The Nexlab WA Page Main Text Page